GFSSE_con_mucape_231.txt.gz
CAPE
1388 1278 1926 1666 1530 1543 1530 1312 872 964 927 956 884 449 929 1111 1004 778 584 427 531 899 453 205 125 105 56 0 130 156 131 104 174 0 0 0 0 17 3 17 1 1 0
1642 1538 1264 1249 1055 1243 1321 1385 1184 1120 985 802 927 867 630 1059 1043 787 716 495 482 686 763 337 204 148 74 8 46 76 39 16 91 0 0 0 0 1 0 0 0 19 19
1454 1240 1205 1387 1378 1298 1216 1148 1053 1028 976 1125 1050 860 910 644 980 889 896 793 562 573 692 717 300 192 113 23 32 61 12 3 30 0 0 0 0 0 0 9 18 7 0
996 1197 1319 1571 1546 1496 1403 1204 1035 968 941 899 911 1105 1131 1017 803 760 1013 961 797 705 672 753 802 376 176 63 6 5 0 11 77 175 0 0 0 0 0 3 0 16 18
515 448 572 735 833 1029 1305 1404 1348 1254 1199 1153 1013 1020 1011 1034 1198 1068 934 828 976 938 868 899 883 865 538 225 56 0 0 20 132 180 207 0 0 0 0 12 6 7 4
514 390 307 385 478 453 526 535 526 425 343 420 1074 1120 1132 1017 1066 880 875 1035 1052 1024 1031 883 1035 980 865 683 316 45 0 31 187 397 112 0 0 0 0 1 6 0 11
438 324 270 373 351 353 382 372 344 301 275 282 259 530 751 974 904 894 766 801 1014 1036 910 1006 858 933 979 893 802 408 37 59 156 326 22 0 0 0 0 1 0 0 1
420 272 240 247 220 227 244 325 324 228 197 196 208 186 195 603 727 452 437 494 620 898 1015 842 824 900 1082 1033 995 909 597 509 102 0 6 0 0 42 3 10 1 0 0
315 384 339 226 167 82 7 38 6 5 52 121 109 94 45 38 100 88 70 53 89 267 485 644 715 928 968 1036 1068 980 1169 980 63 0 0 0 0 90 220 81 2 4 3
267 191 117 116 34 2 0 0 0 0 0 0 0 0 0 0 0 0 0 0 2 39 55 61 169 365 607 970 958 1023 1066 946 544 61 0 1 0 66 226 227 78 10 12
1 5 2 2 4 6 3 0 0 0 0 0 0 0 0 0 0 0 0 0 0 0 0 0 18 50 58 116 350 803 778 517 740 415 45 58 33 121 303 340 280 149 19
0 0 0 0 0 0 0 0 0 0 0 0 0 0 0 0 0 0 0 0 0 0 0 0 0 0 8 33 66 314 889 803 298 364 284 54 70 311 437 616 460 303 170
0 0 0 0 0 0 0 0 0 0 0 0 0 0 0 0 0 0 0 0 0 0 0 0 0 0 0 0 0 26 325 510 1118 569 269 332 209 204 550 793 754 498 304
0 0 0 0 0 0 0 0 0 0 0 0 0 0 0 0 0 0 0 0 0 0 0 0 0 0 0 0 0 2 4 98 546 396 171 554 604 518 498 835 832 625 450
0 0 0 0 0 0 0 0 0 0 0 0 0 0 0 0 0 0 0 0 0 0 0 0 0 0 0 0 0 0 0 6 67 782 620 400 740 936 580 620 902 868 657
0 0 0 0 0 0 0 0 0 0 0 0 0 0 0 0 0 0 0 0 0 0 0 0 0 0 0 0 0 0 0 0 3 94 672 776 456 717 708 633 916 927 957
0 0 0 0 0 0 0 0 0 0 0 0 0 0 0 0 0 0 0 0 0 0 0 0 0 0 0 0 0 0 0 0 0 1 235 528 536 415 501 1021 1231 966 963
0 0 0 0 0 0 0 0 0 0 0 0 0 0 0 0 0 0 0 0 0 0 0 0 0 0 0 0 0 0 0 0 0 0 8 147 262 391 414 546 1045 1284 1153
0 0 0 0 0 0 0 0 0 0 0 0 0 0 0 0 0 0 0 0 0 0 0 0 0 0 0 0 0 0 0 0 0 0 0 1 103 311 356 403 593 805 1208
0 0 0 0 0 0 0 0 0 0 0 0 0 0 0 0 0 0 0 0 0 0 0 0 0 0 0 0 0 0 0 0 0 0 0 0 1 152 314 517 645 790 736
0 0 0 0 0 0 0 0 0 0 0 0 0 0 0 0 0 0 0 0 0 0 0 0 0 0 0 0 0 0 0 0 0 0 0 0 0 12 266 254 607 858 970
0 0 0 0 0 0 0 0 0 2 0 0 0 0 0 0 0 0 0 0 0 0 0 0 0 0 0 0 0 0 0 0 0 52 25 19 0 6 39 252 428 557 864
0 0 0 0 0 0 0 0 0 0 0 0 0 0 0 0 0 0 0 0 0 0 0 0 0 0 0 0 14 11 0 0 5 2 24 154 199 134 128 230 497 568 617
0 0 0 0 0 0 0 0 0 0 0 0 0 0 0 0 0 0 0 0 0 0 0 0 0 0 10 10 42 26 16 0 0 0 0 1 45 25 153 206 293 481 441
0 0 0 0 0 0 0 0 0 0 0 0 0 0 0 0 0 0 0 0 0 0 0 0 0 8 43 61 66 64 39 12 3 22 0 0 40 27 66 71 196 351 425
0 0 0 0 0 0 0 0 0 0 0 0 0 0 0 0 0 0 0 0 0 0 0 0 0 5 33 70 64 68 62 19 1 20 59 20 75 49 43 68 121 239 411

GFSSE_con_mucape_234.txt.gz
CAPE
1306 1183 1138 1081 990 999 992 1046 880 904 758 887 897 541 812 1046 854 656 529 401 493 873 437 202 135 105 11 75 281 242 208 201 35 0 0 0 9 1 9 2 0 10 26
1229 1082 1239 1154 949 953 1064 1142 989 973 1081 947 765 750 592 803 994 639 717 487 445 640 721 390 232 165 53 0 112 137 93 147 79 0 0 0 0 0 0 0 0 26 14
772 882 958 1301 1041 1116 1085 1131 983 949 843 795 961 932 887 695 641 864 778 828 630 513 626 803 393 263 169 2 79 172 39 0 67 0 0 2 5 0 0 17 16 0 0
467 747 833 863 976 1120 1260 1212 1133 1100 1083 1025 907 925 996 1123 1036 770 796 833 785 756 699 718 862 487 272 140 40 92 42 38 85 111 30 0 0 0 0 0 0 4 1
400 232 184 191 258 307 583 708 627 529 571 1029 1103 1161 1033 874 886 961 1071 1060 935 892 768 753 774 862 755 348 184 0 5 26 108 187 174 5 0 0 0 6 0 1 0
532 248 135 164 145 159 223 339 361 285 242 193 442 890 959 1056 949 963 829 826 970 933 1013 891 681 817 861 887 520 272 16 48 127 194 215 34 0 0 0 0 0 0 0
366 244 168 105 128 153 126 146 91 134 151 109 122 148 576 721 705 502 585 647 701 959 965 859 891 957 800 858 891 690 366 164 108 245 247 73 3 0 0 5 0 0 1
293 123 82 85 33 12 41 34 12 3 0 19 34 49 69 94 83 80 69 89 249 384 441 721 791 804 852 875 930 879 855 712 98 128 216 148 95 0 30 7 2 0 0
233 151 116 22 5 0 6 0 0 0 0 2 0 0 0 10 17 12 21 35 19 21 62 82 235 305 495 772 908 934 857 992 306 76 73 98 363 39 196 123 97 4 1
99 72 34 10 1 8 4 0 0 0 0 0 0 0 0 0 0 0 0 0 0 0 0 2 21 39 38 128 299 585 944 850 712 362 117 52 570 156 240 482 281 66 5
0 0 1 1 0 0 0 0 0 0 0 0 0 0 0 0 0 0 0 0 0 0 0 0 0 0 5 9 43 101 350 875 387 677 563 244 355 149 402 516 502 365 87
0 0 0 0 0 0 0 0 0 0 0 0 0 0 0 0 0 0 0 0 0 0 0 0 0 0 0 0 0 13 240 696 835 332 410 621 262 200 488 538 573 578 453
0 0 0 0 0 0 0 0 0 0 0 0 0 0 0 0 0 0 0 0 0 0 0 0 0 0 0 0 0 0 0 4 518 897 571 359 405 272 344 526 646 591 622
0 0 0 0 0 0 0 0 0 0 0 0 0 0 0 0 0 0 0 0 0 0 0 0 0 0 0 0 0 0 0 0 3 139 578 562 547 585 573 419 671 836 696
0 0 0 0 0 0 0 0 0 0 0 0 0 0 0 0 0 0 0 0 0 0 0 0 0 0 0 0 0 0 0 0 0 0 178 360 473 709 812 785 640 675 910
0 0 0 0 0 0 0 0 0 0 0 0 0 0 0 0 0 0 0 0 0 0 0 0 0 0 0 0 0 0 0 0 0 0 0 36 334 465 834 845 870 786 852
0 0 0 0 0 0 0 0 0 0 0 0 0 0 0 0 0 0 0 0 0 0 0 0 0 0 0 0 0 0 0 0 0 0 0 0 10 315 451 718 902 953 856
0 0 0 0 0 0 0 0 0 0 0 1 0 0 0 0 0 0 0 0 0 0 0 0 0 0 0 0 0 0 0 0 0 0 0 0 0 10 337 489 602 881 964
0 0 0 0 0 0 0 0 0 0 0 14 29 10 0 0 0 0 9 4 1 0 1 1 0 0 0 0 0 0 0 0 0 0 0 0 0 0 12 237 361 693 786
0 0 0 0 0 0 0 0 0 0 0 1 34 52 22 4 0 0 0 0 0 0 0 0 0 1 1 0 0 0 0 0 0 0 0 0 0 0 0 4 426 388 572
0 0 0 0 0 0 0 0 0 0 0 0 10 33 28 20 20 23 2 0 0 0 0 0 0 0 0 0 0 0 0 0 0 0 0 0 0 0 0 2 35 466 297
0 0 0 0 0 0 0 0 0 0 0 0 0 0 30 34 24 4 12 0 0 0 0 0 0 0 0 0 0 0 0 0 0 0 1 1 4 1 0 0 1 32 300
0 0 0 0 0 0 0 0 0 3 3 0 0 0 0 0 5 8 5 10 10 4 0 0 0 0 0 0 0 0 0 0 0 0 0 0 0 35 22 45 18 23 127
0 0 0 0 0 1 1 9 14 33 40 13 7 3 1 0 0 0 0 0 3 4 2 0 0 0 0 0 0 0 7 13 0 0 0 0 0 0 9 44 62 101 138
0 0 0 0 0 0 0 0 0 0 51 32 34 17 7 4 1 0 0 0 0 6 8 5 2 0 0 1 9 9 28 47 43 34 0 0 0 0 1 83 24 1 20
0 0 0 0 0 0 0 0 0 0 0 0 0 0 36 30 16 8 4 1 0 0 0 1 1 0 0 2 12 15 13 34 48 66 39 5 3 0 4 13 8 14 0

GFSSE_con_mucape_237.txt.gz
CAPE
476 770 993 987 845 926 961 1060 930 895 673 578 958 549 601 979 839 637 506 358 343 642 435 229 145 92 36 107 317 245 158 264 2 0 0 0 0 0 23 0 0 12 31
373 554 738 931 1039 953 927 952 909 892 883 997 807 619 642 576 977 710 661 582 462 476 680 440 256 186 107 7 147 136 109 149 0 0 0 0 0 0 0 0 40 20 18
486 316 326 700 849 891 993 996 936 849 942 890 830 949 937 818 576 837 759 708 735 581 495 697 494 313 197 74 85 179 70 0 82 0 0 2 16 0 0 4 2 0 7
469 397 294 190 311 480 564 528 554 643 795 880 881 887 985 1024 1154 1012 778 871 728 664 649 663 708 664 379 216 95 152 167 41 46 130 0 19 9 0 0 0 0 0 0
336 246 205 63 75 87 101 154 201 227 295 378 622 1000 905 893 797 897 1009 1101 1091 1024 910 715 690 815 804 586 304 121 130 107 125 160 147 68 1 3 0 0 0 0 0
135 214 134 102 100 80 79 124 109 107 135 180 188 278 400 794 783 774 779 792 879 878 890 947 987 808 792 819 781 483 226 59 251 116 177 259 0 2 0 0 0 0 0
267 330 182 115 137 84 94 113 92 103 78 42 65 88 126 201 188 264 348 409 619 666 822 884 849 792 903 850 818 835 663 546 65 39 278 144 60 64 0 4 0 0 0
27 58 158 96 75 51 61 5 0 5 4 0 1 14 37 85 56 72 63 58 70 59 113 202 264 421 673 774 869 827 820 920 288 17 192 370 352 125 3 8 51 0 0
42 88 97 47 128 94 5 0 0 0 0 0 0 0 4 2 0 0 1 0 5 16 11 21 54 42 98 178 393 595 863 957 712 272 127 266 880 290 116 155 111 19 2
19 16 5 0 0 0 0 3 0 0 0 0 0 0 0 0 0 0 0 0 0 0 0 0 0 42 12 11 23 166 353 579 641 697 401 255 1116 520 320 329 403 314 80
3 3 0 0 0 0 0 0 0 0 0 0 0 0 0 0 0 0 0 0 0 0 0 0 0 0 0 13 19 16 82 783 983 716 527 840 645 532 476 436 565 431 404
0 2 0 0 0 0 0 0 0 0 0 0 0 0 0 0 0 0 0 0 0 0 0 0 0 0 0 0 0 6 4 157 372 685 371 344 412 586 305 404 555 495 479
0 0 0 0 0 0 0 0 0 0 0 0 0 0 0 0 0 0 0 0 0 0 0 0 0 0 0 0 0 0 0 0 0 486 479 409 415 473 687 416 944 643 647
0 0 0 0 0 0 0 0 0 0 0 0 0 0 0 0 0 0 0 0 0 0 0 0 0 0 0 0 0 0 0 0 0 0 166 210 312 757 876 790 638 980 855
0 0 0 0 0 0 0 0 0 0 0 0 0 0 2 0 0 0 0 0 0 0 0 0 0 0 0 0 0 0 0 0 0 0 0 50 125 170 570 928 929 781 840
0 0 0 0 0 0 0 0 0 0 0 0 0 1 0 16 7 0 0 0 0 0 0 0 0 0 0 0 0 0 0 0 0 0 0 0 11 115 155 602 813 654 887
0 0 0 0 0 0 0 0 0 0 0 0 0 0 1 19 20 2 4 5 2 0 0 0 0 0 0 0 0 0 0 0 0 0 0 0 0 1 293 257 395 855 1046
0 0 0 0 0 0 0 0 0 0 0 0 0 20 36 68 41 9 15 10 33 37 14 4 1 0 0 0 0 0 0 0 0 0 0 0 0 0 0 270 361 348 706
0 0 0 0 0 0 0 0 0 0 0 0 0 0 24 78 73 55 82 43 22 58 62 41 15 15 5 0 0 0 0 0 0 0 0 0 0 0 0 0 0 367 365
0 0 0 0 0 0 0 0 0 0 0 5 0 0 0 26 74 112 122 115 109 74 55 44 35 31 30 26 1 0 0 0 0 0 0 0 0 0 0 0 0 0 381
0 0 0 0 0 0 3 3 1 2 0 3 15 2 0 0 51 119 150 111 140 157 94 87 70 86 71 32 20 4 0 0 0 0 0 0 0 0 0 0 0 0 0
0 0 0 0 0 0 43 47 47 43 31 26 25 11 0 0 13 47 109 145 166 179 180 159 111 86 71 33 14 7 0 0 0 0 0 0 0 0 2 6 1 0 0
0 0 0 0 0 0 0 0 25 0 29 62 66 63 50 16 12 12 37 53 103 160 192 200 167 182 114 55 10 11 0 0 0 0 0 0 0 0 0 5 5 34 22
0 0 0 0 0 0 0 0 0 0 0 0 0 61 68 57 34 21 12 4 6 65 123 146 178 151 149 83 35 1 1 1 2 0 0 0 0 0 0 0 0 3 38
0 0 0 0 0 0 0 0 0 0 0 0 0 0 0 0 68 55 37 17 6 5 17 35 100 129 111 77 34 37 33 30 11 19 2 0 3 1 0 0 33 65 46
0 0 0 0 0 0 0 0 0 0 0 0 0 0 0 0 0 71 41 61 47 25 16 10 11 63 93 53 27 33 61 49 23 27 25 14 13 16 4 0 15 4 2

GFSSE_con_mucape_240.txt.gz
CAPE
184 203 551 665 773 802 887 922 855 861 937 827 701 665 561 834 898 662 603 392 276 617 492 239 132 36 48 55 343 290 169 190 1 0 0 0 0 7 3 0 4 31 36
175 209 207 432 610 662 688 711 745 826 825 765 877 883 748 601 806 852 649 678 490 326 693 497 275 173 102 0 50 120 70 98 0 0 0 0 0 0 0 2 61 34 6
312 194 361 140 182 191 212 231 311 453 635 796 717 707 747 818 836 676 858 744 787 701 491 668 638 388 235 107 14 197 158 0 102 5 0 0 8 0 0 0 13 6 0
433 293 259 84 19 66 104 95 143 156 224 307 386 766 767 798 721 759 879 897 911 746 718 715 683 682 521 334 177 159 270 155 97 167 74 24 31 9 2 0 0 0 15
138 282 275 55 116 56 38 43 66 97 115 156 182 232 306 510 823 769 705 785 821 867 827 796 806 712 707 654 481 285 173 219 204 301 81 32 19 12 0 0 0 12 8
63 46 0 138 71 128 97 62 78 101 101 90 128 143 156 157 213 276 341 759 671 754 855 910 871 880 819 794 740 722 467 199 420 86 20 59 26 15 0 0 0 9 0
45 35 25 15 112 60 133 142 94 137 161 163 118 21 37 84 127 82 85 221 243 306 479 644 753 862 858 822 780 736 813 805 229 0 0 35 68 214 0 0 0 0 0
43 4 0 12 7 39 85 51 61 15 2 1 2 0 0 0 3 64 108 55 37 47 77 103 134 198 255 313 606 799 878 925 636 191 0 48 442 573 191 0 55 0 0
4 3 10 10 11 10 12 16 7 1 3 0 0 0 0 0 0 0 4 31 24 0 0 5 18 20 25 16 58 330 525 778 642 494 239 29 1130 892 448 134 97 101 0
2 5 4 10 0 4 0 0 0 0 0 0 0 0 0 0 0 0 0 0 0 0 0 0 0 0 0 6 0 12 158 229 376 512 518 414 976 864 684 384 322 307 203
0 0 0 0 0 0 0 0 0 0 0 0 0 0 0 0 0 0 0 0 0 0 0 0 0 0 0 0 3 3 26 20 590 666 658 695 458 845 771 575 527 584 380
0 0 0 0 0 0 0 0 0 0 0 0 0 0 0 0 0 0 0 0 0 0 0 0 0 0 0 0 0 0 1 4 99 486 457 781 717 493 570 626 646 688 598
0 0 0 0 0 0 0 0 0 0 0 0 0 0 0 0 0 0 0 0 0 0 0 0 0 0 0 0 0 0 0 0 0 85 539 625 605 599 635 762 737 733 716
0 0 0 0 0 0 0 0 0 0 0 0 0 0 0 0 0 0 0 0 0 0 0 0 0 0 0 0 0 0 0 0 0 0 0 551 419 638 797 993 938 819 706
0 0 0 0 0 0 0 0 0 0 0 0 0 0 0 0 3 7 0 0 0 0 0 0 0 0 0 0 0 0 0 0 0 0 0 0 206 0 78 553 1031 1083 941
0 0 0 0 0 0 0 0 0 0 0 0 0 0 0 0 0 0 21 5 2 0 0 0 0 0 0 0 0 0 0 0 0 0 0 0 0 0 0 0 317 907 1106
0 0 0 0 0 0 0 0 0 0 0 0 0 0 0 0 0 0 0 4 0 0 2 2 0 0 0 0 0 0 0 0 0 0 0 0 0 0 0 0 0 137 574
0 0 0 0 0 0 0 0 0 0 0 0 0 0 0 0 0 0 1 2 0 0 0 14 7 0 0 0 0 0 0 0 0 0 0 0 0 0 0 0 0 2 230
0 0 0 0 0 0 0 0 0 0 0 0 0 0 1 0 0 0 1 9 2 0 0 0 0 9 13 1 0 0 0 0 0 0 0 0 0 0 0 0 0 0 0
0 0 0 0 0 0 0 0 0 0 0 0 0 0 0 0 0 0 0 6 16 6 14 6 0 0 0 0 0 0 0 0 0 0 0 0 0 0 0 0 0 0 0
0 0 0 0 0 0 0 0 0 0 0 0 0 0 0 0 0 0 0 0 1 8 9 27 27 15 0 10 26 3 0 0 0 0 0 0 0 0 0 0 0 0 0
0 0 0 0 0 0 0 0 0 0 0 0 0 0 0 0 0 0 0 0 0 3 13 13 49 54 37 15 7 7 0 0 0 0 0 0 0 0 0 0 0 0 0
0 0 0 0 0 0 0 0 0 0 0 0 0 0 0 0 9 11 0 0 0 1 7 22 41 74 77 57 25 8 6 0 0 0 0 0 0 0 0 0 0 0 0
0 0 0 0 0 0 0 0 0 0 0 0 0 0 0 0 0 0 0 0 0 0 1 0 11 41 95 70 53 8 0 0 0 0 0 0 0 0 0 0 0 0 0
0 0 0 0 0 0 0 0 0 0 0 0 0 0 0 0 0 0 0 0 0 0 0 0 0 7 45 29 9 3 5 0 0 3 0 0 0 0 0 0 0 0 17
0 0 0 0 0 0 0 0 0 0 0 0 0 0 0 0 0 0 0 0 0 0 0 1 1 2 9 15 26 24 7 3 1 9 10 3 5 0 0 0 0 0 0

GFSSE_con_mucape_246.txt.gz
CAPE
18 90 26 40 31 43 75 75 89 85 96 165 510 607 760 845 566 771 799 674 432 365 616 433 238 131 101 197 323 328 364 107 0 0 0 0 0 0 0 0 0 13 30
7 25 18 32 31 8 3 32 45 27 36 107 178 169 523 536 563 710 745 739 615 649 448 656 510 303 187 92 213 241 245 200 38 0 0 0 26 14 0 30 36 0 0
21 29 22 29 65 37 6 28 3 0 11 35 43 103 179 180 471 521 616 686 747 692 631 601 635 575 435 269 143 230 230 200 198 48 0 0 0 19 23 71 36 7 0
15 15 9 4 9 8 12 12 36 52 6 4 21 70 89 42 139 169 372 552 554 601 628 643 630 636 617 534 383 241 319 356 209 185 119 10 2 20 17 50 55 8 0
20 3 9 0 29 1 0 4 14 68 33 20 14 29 39 39 46 50 68 155 338 421 469 532 585 578 642 609 613 559 365 342 420 329 148 86 25 28 79 52 12 7 0
15 5 7 12 2 14 21 10 10 4 18 5 51 14 13 16 19 37 38 43 52 80 117 212 415 466 584 675 694 610 701 575 658 325 160 27 92 103 260 82 29 2 3
6 2 5 3 10 7 1 1 4 0 1 0 1 13 28 25 36 17 6 24 30 44 44 50 89 176 316 495 520 735 804 750 535 326 115 31 5 141 385 176 55 43 2
0 0 0 0 0 0 1 4 0 1 0 0 0 0 0 0 1 1 18 14 5 6 31 44 48 32 78 91 187 331 417 592 607 465 290 119 20 241 407 299 167 191 28
0 0 0 0 0 0 0 0 0 0 0 0 0 0 0 0 0 0 0 0 0 0 0 33 77 73 34 27 40 64 176 197 337 323 334 259 158 299 501 408 398 344 184
0 0 0 0 0 0 0 0 0 0 0 0 0 0 0 0 0 0 0 0 0 6 1 0 0 47 32 17 0 10 22 9 15 44 126 326 580 539 588 578 566 386 285
0 0 0 0 0 0 0 0 0 0 0 0 0 0 0 0 0 0 0 0 0 0 0 0 0 0 5 0 0 0 1 18 20 14 199 408 492 643 485 696 710 622 425
0 0 0 0 0 0 0 0 0 0 0 0 0 0 0 0 0 0 0 0 0 0 0 0 0 0 0 0 0 0 0 0 5 17 52 25 162 386 625 635 749 759 724
0 0 0 0 0 0 0 0 0 0 0 0 0 0 0 0 0 0 0 0 0 0 0 0 0 0 0 0 0 0 0 0 0 0 22 6 11 308 363 691 726 696 676
0 0 0 0 0 0 0 0 0 0 0 0 0 0 0 0 0 0 0 0 0 0 0 0 0 0 0 0 0 0 0 0 0 0 0 4 12 2 114 422 628 613 578
0 0 0 0 0 0 0 0 0 0 0 0 0 0 0 0 0 0 0 0 0 0 0 0 0 0 0 0 0 0 0 0 0 0 0 0 0 0 0 67 267 284 676
0 0 0 0 0 0 0 0 0 0 0 0 0 0 0 0 0 0 0 0 0 0 0 0 0 0 0 0 0 0 0 0 0 0 0 0 0 0 0 0 22 26 8
0 0 0 0 0 0 0 0 0 0 0 0 0 0 0 0 0 0 0 0 0 0 0 0 0 0 1 0 0 0 0 0 0 0 0 0 0 0 0 0 0 0 16
0 0 0 0 0 0 0 0 0 0 0 0 0 0 0 0 0 0 0 0 0 0 0 0 0 0 6 0 0 0 0 0 0 0 0 0 0 0 0 0 0 0 0
0 0 0 0 0 0 0 0 0 0 0 0 0 0 0 0 0 0 0 0 0 0 0 0 0 0 0 0 2 0 0 0 0 0 0 0 0 0 0 0 0 0 0
0 0 0 0 0 0 0 0 0 0 0 0 0 0 0 0 0 0 0 0 0 0 0 0 0 0 0 0 0 0 0 0 0 0 0 0 0 0 0 0 0 0 0
0 0 0 0 0 0 0 0 0 0 0 0 0 0 0 0 0 0 0 0 0 0 0 0 0 0 1 0 0 0 0 0 0 0 0 0 0 0 0 0 0 0 0
0 0 0 0 0 0 0 0 0 0 0 0 0 0 0 0 0 0 0 0 0 0 0 0 0 0 1 3 2 0 0 0 0 0 0 0 0 0 0 0 0 0 0
0 0 0 0 0 0 0 0 0 0 0 0 0 0 0 0 0 0 0 0 0 0 0 0 0 0 8 5 6 1 0 0 0 0 0 0 0 0 0 0 0 0 0
0 0 0 0 0 0 0 0 0 0 0 0 0 0 0 0 0 0 0 0 0 0 0 0 0 0 0 3 11 2 0 0 0 0 0 0 0 0 0 0 0 0 0
0 0 0 0 0 0 0 0 0 0 0 0 0 0 0 0 0 0 0 0 0 0 0 0 0 0 0 0 5 8 1 0 11 6 0 0 0 0 0 0 0 0 0
0 0 0 0 0 0 0 0 0 0 0 0 0 0 0 0 0 0 0 0 0 0 0 0 0 0 0 0 3 8 4 2 2 11 4 0 0 0 0 0 0 0 0